iso_date,epoch_date,Year,Hour,Min,DOY,POS_DOY,Lat,Lon,BP,Ts,Ta,has_bp,has_ts,has_ta,BuoyID,Buoy_Type,Buoy_Owner,Logistics,Hemisphere
2019-05-01T12:06:02Z,1556712363,2019,12,6,121.5042,121.5042,-70.66625,-8.28553,994.7,-999.00,-999.0,yes,no,no,300025060014730,unknown,unknown,unknown,South
2019-05-01T13:01:03Z,1556715663,2019,13,1,121.5424,121.5424,-70.6663,-8.28562,994.2,-999.00,-999.0,yes,no,no,300025060014730,unknown,unknown,unknown,South
2019-05-01T13:58:56Z,1556719137,2019,13,59,121.5826,121.5826,-70.66587,-8.28577,994.0,-999.00,-999.0,yes,no,no,300025060014730,unknown,unknown,unknown,South
2019-05-01T14:58:59Z,1556722740,2019,14,59,121.6243,121.6243,-70.66599,-8.28574,993.5,-999.00,-999.0,yes,no,no,300025060014730,unknown,unknown,unknown,South
2019-05-01T16:00:02Z,1556726403,2019,16,0,121.6667,121.6667,-70.66619,-8.28556,993.2,-999.00,-999.0,yes,no,no,300025060014730,unknown,unknown,unknown,South
2019-05-01T16:59:57Z,1556729997,2019,17,0,121.7083,121.7083,-70.66625,-8.2857,993.6,-999.00,-999.0,yes,no,no,300025060014730,unknown,unknown,unknown,South
2019-05-01T18:00:00Z,1556733600,2019,18,0,121.75,121.75,-70.6662,-8.2856,993.5,-999.00,-999.0,yes,no,no,300025060014730,unknown,unknown,unknown,South
2019-05-01T19:00:02Z,1556737203,2019,19,0,121.7917,121.7917,-70.66621,-8.2856,993.4,-999.00,-999.0,yes,no,no,300025060014730,unknown,unknown,unknown,South
2019-05-01T19:59:57Z,1556740797,2019,20,0,121.8333,121.8333,-70.66619,-8.28549,993.3,-999.00,-999.0,yes,no,no,300025060014730,unknown,unknown,unknown,South
2019-05-01T21:00:00Z,1556744400,2019,21,0,121.875,121.875,-70.66621,-8.28551,993.2,-999.00,-999.0,yes,no,no,300025060014730,unknown,unknown,unknown,South
2019-05-01T22:00:02Z,1556748003,2019,22,0,121.9167,121.9167,-70.66624,-8.28546,993.1,-999.00,-999.0,yes,no,no,300025060014730,unknown,unknown,unknown,South
2019-05-01T22:59:57Z,1556751597,2019,23,0,121.9583,121.9583,-70.6662,-8.28561,993.3,-999.00,-999.0,yes,no,no,300025060014730,unknown,unknown,unknown,South
2019-05-02T00:00:00Z,1556755200,2019,0,0,122.0,122.0,-70.66623,-8.28563,993.6,-999.00,-999.0,yes,no,no,300025060014730,unknown,unknown,unknown,South
2019-05-02T01:00:02Z,1556758803,2019,1,0,122.0417,122.0417,-70.66623,-8.28563,993.6,-999.00,-999.0,yes,no,no,300025060014730,unknown,unknown,unknown,South
2019-05-02T01:59:57Z,1556762397,2019,2,0,122.0833,122.0833,-70.66617,-8.28559,993.5,-999.00,-999.0,yes,no,no,300025060014730,unknown,unknown,unknown,South
2019-05-02T02:58:59Z,1556765940,2019,2,59,122.1243,122.1243,-70.66631,-8.28584,993.8,-999.00,-999.0,yes,no,no,300025060014730,unknown,unknown,unknown,South
2019-05-02T04:00:02Z,1556769603,2019,4,0,122.1667,122.1667,-70.66621,-8.28568,994.0,-999.00,-999.0,yes,no,no,300025060014730,unknown,unknown,unknown,South
2019-05-02T04:58:56Z,1556773137,2019,4,59,122.2076,122.2076,-70.66626,-8.28565,994.5,-999.00,-999.0,yes,no,no,300025060014730,unknown,unknown,unknown,South
2019-05-02T06:00:00Z,1556776800,2019,6,0,122.25,122.25,-70.66623,-8.2856,995.2,-999.00,-999.0,yes,no,no,300025060014730,unknown,unknown,unknown,South
2019-05-02T07:00:02Z,1556780403,2019,7,0,122.2917,122.2917,-70.6662,-8.28565,995.5,-999.00,-999.0,yes,no,no,300025060014730,unknown,unknown,unknown,South
2019-05-02T07:59:57Z,1556783997,2019,8,0,122.3333,122.3333,-70.66615,-8.28563,996.3,-999.00,-999.0,yes,no,no,300025060014730,unknown,unknown,unknown,South
2019-05-02T08:58:59Z,1556787540,2019,8,59,122.3743,122.3743,-70.66626,-8.2856,996.6,-999.00,-999.0,yes,no,no,300025060014730,unknown,unknown,unknown,South
2019-05-02T10:00:02Z,1556791203,2019,10,0,122.4167,122.4167,-70.6662,-8.28569,997.1,-999.00,-999.0,yes,no,no,300025060014730,unknown,unknown,unknown,South
2019-05-02T10:58:56Z,1556794737,2019,10,59,122.4576,122.4576,-70.6662,-8.28555,997.9,-999.00,-999.0,yes,no,no,300025060014730,unknown,unknown,unknown,South
2019-05-02T12:00:00Z,1556798400,2019,12,0,122.5,122.5,-70.66625,-8.28559,998.5,-999.00,-999.0,yes,no,no,300025060014730,unknown,unknown,unknown,South
2019-05-02T12:59:02Z,1556801942,2019,12,59,122.541,122.541,-70.66625,-8.28548,999.0,-999.00,-999.0,yes,no,no,300025060014730,unknown,unknown,unknown,South
2019-05-02T13:58:56Z,1556805537,2019,13,59,122.5826,122.5826,-70.66613,-8.28602,999.7,-999.00,-999.0,yes,no,no,300025060014730,unknown,unknown,unknown,South
2019-05-02T15:00:00Z,1556809200,2019,15,0,122.625,122.625,-70.66629,-8.28531,1000.1,-999.00,-999.0,yes,no,no,300025060014730,unknown,unknown,unknown,South
2019-05-02T16:00:02Z,1556812803,2019,16,0,122.6667,122.6667,-70.66618,-8.28565,1000.6,-999.00,-999.0,yes,no,no,300025060014730,unknown,unknown,unknown,South
2019-05-02T16:59:57Z,1556816397,2019,17,0,122.7083,122.7083,-70.66627,-8.28562,1001.0,-999.00,-999.0,yes,no,no,300025060014730,unknown,unknown,unknown,South
2019-05-02T18:00:00Z,1556820000,2019,18,0,122.75,122.75,-70.66621,-8.28564,1001.4,-999.00,-999.0,yes,no,no,300025060014730,unknown,unknown,unknown,South
2019-05-02T19:00:02Z,1556823603,2019,19,0,122.7917,122.7917,-70.66609,-8.28555,1001.6,-999.00,-999.0,yes,no,no,300025060014730,unknown,unknown,unknown,South
2019-05-02T19:59:57Z,1556827197,2019,20,0,122.8333,122.8333,-70.66619,-8.28559,1002.4,-999.00,-999.0,yes,no,no,300025060014730,unknown,unknown,unknown,South
2019-05-02T21:00:00Z,1556830800,2019,21,0,122.875,122.875,-70.66623,-8.28557,1002.5,-999.00,-999.0,yes,no,no,300025060014730,unknown,unknown,unknown,South
2019-05-02T21:59:02Z,1556834342,2019,21,59,122.916,122.916,-70.6662,-8.28561,1002.8,-999.00,-999.0,yes,no,no,300025060014730,unknown,unknown,unknown,South
2019-05-02T22:59:57Z,1556837997,2019,23,0,122.9583,122.9583,-70.66621,-8.28579,1003.0,-999.00,-999.0,yes,no,no,300025060014730,unknown,unknown,unknown,South
2019-05-03T00:00:00Z,1556841600,2019,0,0,123.0,123.0,-70.6662,-8.28554,1002.9,-999.00,-999.0,yes,no,no,300025060014730,unknown,unknown,unknown,South
2019-05-03T00:59:02Z,1556845142,2019,0,59,123.041,123.041,-70.6662,-8.28562,1003.1,-999.00,-999.0,yes,no,no,300025060014730,unknown,unknown,unknown,South
2019-05-03T01:58:56Z,1556848737,2019,1,59,123.0826,123.0826,-70.6662,-8.28559,1003.5,-999.00,-999.0,yes,no,no,300025060014730,unknown,unknown,unknown,South
2019-05-03T02:58:59Z,1556852340,2019,2,59,123.1243,123.1243,-70.66621,-8.28564,1003.4,-999.00,-999.0,yes,no,no,300025060014730,unknown,unknown,unknown,South
2019-05-03T04:00:02Z,1556856003,2019,4,0,123.1667,123.1667,-70.66625,-8.28561,1003.5,-999.00,-999.0,yes,no,no,300025060014730,unknown,unknown,unknown,South
2019-05-03T04:58:56Z,1556859537,2019,4,59,123.2076,123.2076,-70.66622,-8.28564,1003.4,-999.00,-999.0,yes,no,no,300025060014730,unknown,unknown,unknown,South
2019-05-03T06:00:00Z,1556863200,2019,6,0,123.25,123.25,-70.66611,-8.28562,1003.5,-999.00,-999.0,yes,no,no,300025060014730,unknown,unknown,unknown,South
2019-05-03T07:00:02Z,1556866803,2019,7,0,123.2917,123.2917,-70.66623,-8.28574,1003.3,-999.00,-999.0,yes,no,no,300025060014730,unknown,unknown,unknown,South
2019-05-03T07:59:57Z,1556870397,2019,8,0,123.3333,123.3333,-70.66626,-8.28449,1003.3,-999.00,-999.0,yes,no,no,300025060014730,unknown,unknown,unknown,South
2019-05-03T09:00:00Z,1556874000,2019,9,0,123.375,123.375,-70.66623,-8.28576,1003.2,-999.00,-999.0,yes,no,no,300025060014730,unknown,unknown,unknown,South
2019-05-03T10:00:02Z,1556877603,2019,10,0,123.4167,123.4167,-70.6662,-8.28567,1003.1,-999.00,-999.0,yes,no,no,300025060014730,unknown,unknown,unknown,South
2019-05-03T10:59:57Z,1556881197,2019,11,0,123.4583,123.4583,-70.66617,-8.28565,1003.1,-999.00,-999.0,yes,no,no,300025060014730,unknown,unknown,unknown,South
2019-05-03T12:00:00Z,1556884800,2019,12,0,123.5,123.5,-70.6662,-8.28561,1002.8,-999.00,-999.0,yes,no,no,300025060014730,unknown,unknown,unknown,South
2019-05-03T12:59:02Z,1556888342,2019,12,59,123.541,123.541,-70.66625,-8.2856,1002.6,-999.00,-999.0,yes,no,no,300025060014730,unknown,unknown,unknown,South
2019-05-03T13:59:57Z,1556891997,2019,14,0,123.5833,123.5833,-70.66622,-8.28559,1002.2,-999.00,-999.0,yes,no,no,300025060014730,unknown,unknown,unknown,South
2019-05-03T15:00:00Z,1556895600,2019,15,0,123.625,123.625,-70.66615,-8.28563,1001.8,-999.00,-999.0,yes,no,no,300025060014730,unknown,unknown,unknown,South
2019-05-03T15:59:02Z,1556899142,2019,15,59,123.666,123.666,-70.66618,-8.2856,1001.4,-999.00,-999.0,yes,no,no,300025060014730,unknown,unknown,unknown,South
2019-05-03T16:58:56Z,1556902737,2019,16,59,123.7076,123.7076,-70.66626,-8.28569,1001.3,-999.00,-999.0,yes,no,no,300025060014730,unknown,unknown,unknown,South
2019-05-03T18:00:00Z,1556906400,2019,18,0,123.75,123.75,-70.6662,-8.28557,1001.1,-999.00,-999.0,yes,no,no,300025060014730,unknown,unknown,unknown,South
2019-05-03T19:00:02Z,1556910003,2019,19,0,123.7917,123.7917,-70.66621,-8.28566,1000.6,-999.00,-999.0,yes,no,no,300025060014730,unknown,unknown,unknown,South
2019-05-03T19:58:56Z,1556913537,2019,19,59,123.8326,123.8326,-70.6662,-8.28554,1000.2,-999.00,-999.0,yes,no,no,300025060014730,unknown,unknown,unknown,South
2019-05-03T20:58:59Z,1556917140,2019,20,59,123.8743,123.8743,-70.66623,-8.28541,999.7,-999.00,-999.0,yes,no,no,300025060014730,unknown,unknown,unknown,South
2019-05-03T22:00:02Z,1556920803,2019,22,0,123.9167,123.9167,-70.66617,-8.28567,999.2,-999.00,-999.0,yes,no,no,300025060014730,unknown,unknown,unknown,South
2019-05-03T22:58:56Z,1556924337,2019,22,59,123.9576,123.9576,-70.66618,-8.28571,998.7,-999.00,-999.0,yes,no,no,300025060014730,unknown,unknown,unknown,South
2019-05-04T00:00:00Z,1556928000,2019,0,0,124.0,124.0,-70.66621,-8.28556,998.3,-999.00,-999.0,yes,no,no,300025060014730,unknown,unknown,unknown,South
2019-05-04T01:00:02Z,1556931603,2019,1,0,124.0417,124.0417,-70.66621,-8.28553,998.0,-999.00,-999.0,yes,no,no,300025060014730,unknown,unknown,unknown,South
2019-05-04T01:59:57Z,1556935197,2019,2,0,124.0833,124.0833,-70.66625,-8.28575,998.3,-999.00,-999.0,yes,no,no,300025060014730,unknown,unknown,unknown,South
2019-05-04T03:00:00Z,1556938800,2019,3,0,124.125,124.125,-70.66622,-8.28563,997.6,-999.00,-999.0,yes,no,no,300025060014730,unknown,unknown,unknown,South
2019-05-04T03:59:02Z,1556942342,2019,3,59,124.166,124.166,-70.66626,-8.28568,997.0,-999.00,-999.0,yes,no,no,300025060014730,unknown,unknown,unknown,South
2019-05-04T04:59:57Z,1556945997,2019,5,0,124.2083,124.2083,-70.6662,-8.28561,996.3,-999.00,-999.0,yes,no,no,300025060014730,unknown,unknown,unknown,South
2019-05-04T06:00:00Z,1556949600,2019,6,0,124.25,124.25,-70.66618,-8.28597,995.8,-999.00,-999.0,yes,no,no,300025060014730,unknown,unknown,unknown,South
2019-05-04T07:00:02Z,1556953203,2019,7,0,124.2917,124.2917,-70.66618,-8.28563,995.0,-999.00,-999.0,yes,no,no,300025060014730,unknown,unknown,unknown,South
2019-05-04T07:59:57Z,1556956797,2019,8,0,124.3333,124.3333,-70.66609,-8.28563,994.1,-999.00,-999.0,yes,no,no,300025060014730,unknown,unknown,unknown,South
2019-05-04T09:00:00Z,1556960400,2019,9,0,124.375,124.375,-70.66743,-8.28478,992.9,-999.00,-999.0,yes,no,no,300025060014730,unknown,unknown,unknown,South
2019-05-04T10:00:02Z,1556964003,2019,10,0,124.4167,124.4167,-70.66619,-8.28557,991.6,-999.00,-999.0,yes,no,no,300025060014730,unknown,unknown,unknown,South
2019-05-04T10:59:57Z,1556967597,2019,11,0,124.4583,124.4583,-70.66616,-8.28556,990.7,-999.00,-999.0,yes,no,no,300025060014730,unknown,unknown,unknown,South
2019-05-04T12:00:00Z,1556971200,2019,12,0,124.5,124.5,-70.66616,-8.28575,990.0,-999.00,-999.0,yes,no,no,300025060014730,unknown,unknown,unknown,South
2019-05-04T13:00:02Z,1556974803,2019,13,0,124.5417,124.5417,-70.66632,-8.28562,988.9,-999.00,-999.0,yes,no,no,300025060014730,unknown,unknown,unknown,South
2019-05-04T13:58:56Z,1556978337,2019,13,59,124.5826,124.5826,-70.66627,-8.28574,988.5,-999.00,-999.0,yes,no,no,300025060014730,unknown,unknown,unknown,South
2019-05-04T14:58:59Z,1556981940,2019,14,59,124.6243,124.6243,-70.66623,-8.28562,988.0,-999.00,-999.0,yes,no,no,300025060014730,unknown,unknown,unknown,South
2019-05-04T16:00:02Z,1556985603,2019,16,0,124.6667,124.6667,-70.66618,-8.28556,987.3,-999.00,-999.0,yes,no,no,300025060014730,unknown,unknown,unknown,South
2019-05-04T16:59:57Z,1556989197,2019,17,0,124.7083,124.7083,-70.66625,-8.28553,987.2,-999.00,-999.0,yes,no,no,300025060014730,unknown,unknown,unknown,South
2019-05-04T18:00:00Z,1556992800,2019,18,0,124.75,124.75,-70.66619,-8.28572,988.0,-999.00,-999.0,yes,no,no,300025060014730,unknown,unknown,unknown,South
2019-05-04T18:59:02Z,1556996342,2019,18,59,124.791,124.791,-70.66619,-8.28556,987.5,-999.00,-999.0,yes,no,no,300025060014730,unknown,unknown,unknown,South
2019-05-04T19:59:57Z,1556999997,2019,20,0,124.8333,124.8333,-70.66618,-8.28559,987.8,-999.00,-999.0,yes,no,no,300025060014730,unknown,unknown,unknown,South
2019-05-04T20:58:59Z,1557003540,2019,20,59,124.8743,124.8743,-70.66619,-8.28547,987.8,-999.00,-999.0,yes,no,no,300025060014730,unknown,unknown,unknown,South
2019-05-04T22:00:02Z,1557007203,2019,22,0,124.9167,124.9167,-70.66619,-8.28562,987.6,-999.00,-999.0,yes,no,no,300025060014730,unknown,unknown,unknown,South
2019-05-04T22:59:57Z,1557010797,2019,23,0,124.9583,124.9583,-70.66623,-8.28559,988.3,-999.00,-999.0,yes,no,no,300025060014730,unknown,unknown,unknown,South
2019-05-05T00:00:00Z,1557014400,2019,0,0,125.0,125.0,-70.6662,-8.28563,988.6,-999.00,-999.0,yes,no,no,300025060014730,unknown,unknown,unknown,South
2019-05-05T00:59:02Z,1557017942,2019,0,59,125.041,125.041,-70.66618,-8.28575,988.6,-999.00,-999.0,yes,no,no,300025060014730,unknown,unknown,unknown,South
2019-05-05T01:59:57Z,1557021597,2019,2,0,125.0833,125.0833,-70.66619,-8.28559,988.6,-999.00,-999.0,yes,no,no,300025060014730,unknown,unknown,unknown,South
2019-05-05T03:00:00Z,1557025200,2019,3,0,125.125,125.125,-70.66625,-8.28567,988.3,-999.00,-999.0,yes,no,no,300025060014730,unknown,unknown,unknown,South
2019-05-05T04:00:02Z,1557028803,2019,4,0,125.1667,125.1667,-70.66615,-8.28558,988.1,-999.00,-999.0,yes,no,no,300025060014730,unknown,unknown,unknown,South
2019-05-05T04:59:57Z,1557032397,2019,5,0,125.2083,125.2083,-70.66623,-8.28551,988.1,-999.00,-999.0,yes,no,no,300025060014730,unknown,unknown,unknown,South
2019-05-05T06:00:00Z,1557036000,2019,6,0,125.25,125.25,-70.6662,-8.28557,987.7,-999.00,-999.0,yes,no,no,300025060014730,unknown,unknown,unknown,South
2019-05-05T06:59:02Z,1557039542,2019,6,59,125.291,125.291,-70.66612,-8.2857,987.2,-999.00,-999.0,yes,no,no,300025060014730,unknown,unknown,unknown,South
2019-05-05T07:59:57Z,1557043197,2019,8,0,125.3333,125.3333,-70.66624,-8.28571,987.1,-999.00,-999.0,yes,no,no,300025060014730,unknown,unknown,unknown,South
2019-05-05T08:58:59Z,1557046740,2019,8,59,125.3743,125.3743,-70.66625,-8.28562,987.2,-999.00,-999.0,yes,no,no,300025060014730,unknown,unknown,unknown,South
2019-05-05T10:00:02Z,1557050403,2019,10,0,125.4167,125.4167,-70.66623,-8.28408,986.8,-999.00,-999.0,yes,no,no,300025060014730,unknown,unknown,unknown,South
2019-05-05T10:59:57Z,1557053997,2019,11,0,125.4583,125.4583,-70.66622,-8.28561,986.8,-999.00,-999.0,yes,no,no,300025060014730,unknown,unknown,unknown,South
2019-05-05T12:00:00Z,1557057600,2019,12,0,125.5,125.5,-70.66621,-8.28558,986.7,-999.00,-999.0,yes,no,no,300025060014730,unknown,unknown,unknown,South
2019-05-05T13:00:02Z,1557061203,2019,13,0,125.5417,125.5417,-70.66621,-8.28563,986.5,-999.00,-999.0,yes,no,no,300025060014730,unknown,unknown,unknown,South
2019-05-05T13:59:57Z,1557064797,2019,14,0,125.5833,125.5833,-70.6663,-8.28558,986.5,-999.00,-999.0,yes,no,no,300025060014730,unknown,unknown,unknown,South
2019-05-05T15:00:00Z,1557068400,2019,15,0,125.625,125.625,-70.6662,-8.28556,986.0,-999.00,-999.0,yes,no,no,300025060014730,unknown,unknown,unknown,South
2019-05-05T16:00:02Z,1557072003,2019,16,0,125.6667,125.6667,-70.66621,-8.28566,986.1,-999.00,-999.0,yes,no,no,300025060014730,unknown,unknown,unknown,South
2019-05-05T16:59:57Z,1557075597,2019,17,0,125.7083,125.7083,-70.6662,-8.28561,986.0,-999.00,-999.0,yes,no,no,300025060014730,unknown,unknown,unknown,South
2019-05-05T18:00:00Z,1557079200,2019,18,0,125.75,125.75,-70.66621,-8.28578,986.3,-999.00,-999.0,yes,no,no,300025060014730,unknown,unknown,unknown,South
2019-05-05T19:00:02Z,1557082803,2019,19,0,125.7917,125.7917,-70.66618,-8.28563,986.6,-999.00,-999.0,yes,no,no,300025060014730,unknown,unknown,unknown,South
2019-05-05T19:59:57Z,1557086397,2019,20,0,125.8333,125.8333,-70.66617,-8.28568,986.7,-999.00,-999.0,yes,no,no,300025060014730,unknown,unknown,unknown,South
2019-05-05T21:00:00Z,1557090000,2019,21,0,125.875,125.875,-70.66619,-8.28556,987.0,-999.00,-999.0,yes,no,no,300025060014730,unknown,unknown,unknown,South
2019-05-05T21:59:02Z,1557093542,2019,21,59,125.916,125.916,-70.66615,-8.28566,987.0,-999.00,-999.0,yes,no,no,300025060014730,unknown,unknown,unknown,South
2019-05-05T22:59:57Z,1557097197,2019,23,0,125.9583,125.9583,-70.66628,-8.28549,987.4,-999.00,-999.0,yes,no,no,300025060014730,unknown,unknown,unknown,South
2019-05-06T00:00:00Z,1557100800,2019,0,0,126.0,126.0,-70.6662,-8.28567,987.7,-999.00,-999.0,yes,no,no,300025060014730,unknown,unknown,unknown,South
2019-05-06T01:00:02Z,1557104403,2019,1,0,126.0417,126.0417,-70.66631,-8.28531,987.4,-999.00,-999.0,yes,no,no,300025060014730,unknown,unknown,unknown,South
2019-05-06T01:59:57Z,1557107997,2019,2,0,126.0833,126.0833,-70.66626,-8.28568,987.6,-999.00,-999.0,yes,no,no,300025060014730,unknown,unknown,unknown,South
2019-05-06T03:00:00Z,1557111600,2019,3,0,126.125,126.125,-70.66619,-8.28565,988.0,-999.00,-999.0,yes,no,no,300025060014730,unknown,unknown,unknown,South
2019-05-06T04:00:02Z,1557115203,2019,4,0,126.1667,126.1667,-70.66621,-8.28568,988.6,-999.00,-999.0,yes,no,no,300025060014730,unknown,unknown,unknown,South
2019-05-06T04:59:57Z,1557118797,2019,5,0,126.2083,126.2083,-70.66628,-8.2856,988.7,-999.00,-999.0,yes,no,no,300025060014730,unknown,unknown,unknown,South
2019-05-06T06:00:00Z,1557122400,2019,6,0,126.25,126.25,-70.66623,-8.28572,988.3,-999.00,-999.0,yes,no,no,300025060014730,unknown,unknown,unknown,South
2019-05-06T06:59:02Z,1557125942,2019,6,59,126.291,126.291,-70.66619,-8.28558,988.5,-999.00,-999.0,yes,no,no,300025060014730,unknown,unknown,unknown,South
2019-05-06T07:59:57Z,1557129597,2019,8,0,126.3333,126.3333,-70.66617,-8.28555,988.5,-999.00,-999.0,yes,no,no,300025060014730,unknown,unknown,unknown,South
2019-05-06T09:00:00Z,1557133200,2019,9,0,126.375,126.375,-70.66613,-8.28548,988.8,-999.00,-999.0,yes,no,no,300025060014730,unknown,unknown,unknown,South
2019-05-06T10:00:02Z,1557136803,2019,10,0,126.4167,126.4167,-70.66616,-8.28563,989.0,-999.00,-999.0,yes,no,no,300025060014730,unknown,unknown,unknown,South
2019-05-06T10:58:56Z,1557140337,2019,10,59,126.4576,126.4576,-70.6661,-8.28565,989.3,-999.00,-999.0,yes,no,no,300025060014730,unknown,unknown,unknown,South
2019-05-06T12:00:00Z,1557144000,2019,12,0,126.5,126.5,-70.66623,-8.28546,989.6,-999.00,-999.0,yes,no,no,300025060014730,unknown,unknown,unknown,South
2019-05-06T12:59:02Z,1557147542,2019,12,59,126.541,126.541,-70.66614,-8.28561,989.9,-999.00,-999.0,yes,no,no,300025060014730,unknown,unknown,unknown,South
2019-05-06T13:59:57Z,1557151197,2019,14,0,126.5833,126.5833,-70.66623,-8.28563,989.6,-999.00,-999.0,yes,no,no,300025060014730,unknown,unknown,unknown,South
2019-05-06T15:00:00Z,1557154800,2019,15,0,126.625,126.625,-70.66617,-8.28566,990.1,-999.00,-999.0,yes,no,no,300025060014730,unknown,unknown,unknown,South
2019-05-06T15:59:02Z,1557158342,2019,15,59,126.666,126.666,-70.66618,-8.28561,989.8,-999.00,-999.0,yes,no,no,300025060014730,unknown,unknown,unknown,South
2019-05-06T16:59:57Z,1557161997,2019,17,0,126.7083,126.7083,-70.66618,-8.28563,990.3,-999.00,-999.0,yes,no,no,300025060014730,unknown,unknown,unknown,South
2019-05-06T18:00:00Z,1557165600,2019,18,0,126.75,126.75,-70.66623,-8.28556,990.2,-999.00,-999.0,yes,no,no,300025060014730,unknown,unknown,unknown,South
2019-05-06T18:59:02Z,1557169142,2019,18,59,126.791,126.791,-70.66596,-8.28494,990.1,-999.00,-999.0,yes,no,no,300025060014730,unknown,unknown,unknown,South
2019-05-06T19:59:57Z,1557172797,2019,20,0,126.8333,126.8333,-70.66617,-8.28568,990.4,-999.00,-999.0,yes,no,no,300025060014730,unknown,unknown,unknown,South
2019-05-06T20:58:59Z,1557176340,2019,20,59,126.8743,126.8743,-70.66618,-8.2857,990.8,-999.00,-999.0,yes,no,no,300025060014730,unknown,unknown,unknown,South
2019-05-06T22:00:02Z,1557180003,2019,22,0,126.9167,126.9167,-70.66617,-8.28559,991.2,-999.00,-999.0,yes,no,no,300025060014730,unknown,unknown,unknown,South
2019-05-06T22:58:56Z,1557183537,2019,22,59,126.9576,126.9576,-70.66617,-8.28571,991.6,-999.00,-999.0,yes,no,no,300025060014730,unknown,unknown,unknown,South
2019-05-07T00:00:00Z,1557187200,2019,0,0,127.0,127.0,-70.66617,-8.28557,991.8,-999.00,-999.0,yes,no,no,300025060014730,unknown,unknown,unknown,South
2019-05-07T01:00:02Z,1557190803,2019,1,0,127.0417,127.0417,-70.66621,-8.28561,991.8,-999.00,-999.0,yes,no,no,300025060014730,unknown,unknown,unknown,South
2019-05-07T01:59:57Z,1557194397,2019,2,0,127.0833,127.0833,-70.66619,-8.28566,991.8,-999.00,-999.0,yes,no,no,300025060014730,unknown,unknown,unknown,South
2019-05-07T03:00:00Z,1557198000,2019,3,0,127.125,127.125,-70.66619,-8.28558,991.1,-999.00,-999.0,yes,no,no,300025060014730,unknown,unknown,unknown,South
2019-05-07T03:59:02Z,1557201542,2019,3,59,127.166,127.166,-70.66624,-8.28549,990.8,-999.00,-999.0,yes,no,no,300025060014730,unknown,unknown,unknown,South
2019-05-07T04:58:56Z,1557205137,2019,4,59,127.2076,127.2076,-70.66595,-8.286,990.3,-999.00,-999.0,yes,no,no,300025060014730,unknown,unknown,unknown,South
2019-05-07T06:00:00Z,1557208800,2019,6,0,127.25,127.25,-70.66621,-8.28564,989.9,-999.00,-999.0,yes,no,no,300025060014730,unknown,unknown,unknown,South
2019-05-07T06:59:02Z,1557212342,2019,6,59,127.291,127.291,-70.6662,-8.28566,990.1,-999.00,-999.0,yes,no,no,300025060014730,unknown,unknown,unknown,South
2019-05-07T07:59:57Z,1557215997,2019,8,0,127.3333,127.3333,-70.66619,-8.28567,989.9,-999.00,-999.0,yes,no,no,300025060014730,unknown,unknown,unknown,South
2019-05-07T09:00:00Z,1557219600,2019,9,0,127.375,127.375,-70.6662,-8.28558,990.0,-999.00,-999.0,yes,no,no,300025060014730,unknown,unknown,unknown,South
2019-05-07T11:45:01Z,1557229501,2019,11,45,127.4896,127.4896,-70.6662,-8.28568,989.2,-999.00,-999.0,yes,no,no,300025060014730,unknown,unknown,unknown,South
2019-05-07T11:48:02Z,1557229683,2019,11,48,127.4917,127.4917,-70.66619,-8.28577,989.1,-999.00,-999.0,yes,no,no,300025060014730,unknown,unknown,unknown,South
2019-05-07T12:01:00Z,1557230460,2019,12,1,127.5007,127.5007,-70.66621,-8.28564,989.0,-999.00,-999.0,yes,no,no,300025060014730,unknown,unknown,unknown,South
2019-05-07T13:00:02Z,1557234003,2019,13,0,127.5417,127.5417,-70.66624,-8.28559,988.9,-999.00,-999.0,yes,no,no,300025060014730,unknown,unknown,unknown,South
2019-05-07T13:59:57Z,1557237597,2019,14,0,127.5833,127.5833,-70.66615,-8.28557,988.9,-999.00,-999.0,yes,no,no,300025060014730,unknown,unknown,unknown,South
2019-05-07T15:00:00Z,1557241200,2019,15,0,127.625,127.625,-70.6662,-8.28552,988.9,-999.00,-999.0,yes,no,no,300025060014730,unknown,unknown,unknown,South
2019-05-07T15:44:55Z,1557243896,2019,15,45,127.6562,127.6562,-70.66617,-8.28564,988.9,-999.00,-999.0,yes,no,no,300025060014730,unknown,unknown,unknown,South
2019-05-07T15:47:57Z,1557244077,2019,15,48,127.6583,127.6583,-70.66615,-8.28557,988.9,-999.00,-999.0,yes,no,no,300025060014730,unknown,unknown,unknown,South
2019-05-07T16:01:03Z,1557244863,2019,16,1,127.6674,127.6674,-70.66625,-8.28532,988.9,-999.00,-999.0,yes,no,no,300025060014730,unknown,unknown,unknown,South
2019-05-07T16:59:57Z,1557248397,2019,17,0,127.7083,127.7083,-70.66613,-8.2856,989.2,-999.00,-999.0,yes,no,no,300025060014730,unknown,unknown,unknown,South
2019-05-07T18:00:00Z,1557252000,2019,18,0,127.75,127.75,-70.66622,-8.28575,989.6,-999.00,-999.0,yes,no,no,300025060014730,unknown,unknown,unknown,South
2019-05-07T19:00:02Z,1557255603,2019,19,0,127.7917,127.7917,-70.66615,-8.28553,989.6,-999.00,-999.0,yes,no,no,300025060014730,unknown,unknown,unknown,South